Bedford Range, Nova Scotia

1:00 PM ADT on April 30, 2017 (GMT -0300)
Bedford Range

Weather History for CABR - February, 2014

Change the Weather History Date:

Sunday, February 23, 2014

  Actual Average Record
Temperature  
Mean Temperature 37 °F -  
Max Temperature 46 °F - - ()
Min Temperature 28 °F - - ()
Degree Days  
Heating Degree Days 28    
Moisture  
Dew Point 25 °F    
Average Humidity 62    
Maximum Humidity 90    
Minimum Humidity 27    
Precipitation  
Precipitation 0.00 in - - ()
Sea Level Pressure  
Sea Level Pressure 29.89 in    
Wind  
Wind Speed 4 mph ()    
Max Wind Speed 10 mph    
Max Gust Speed 17 mph    
Visibility 9.1 miles    
Events      
T = Trace of Precipitation, MM = Missing Value Source: Averaged Metar Reports

Daily Weather History Graph

Daily Weather History Graph

Search for Another Location

Airport or City:

Trip Planner

Search our weather history database for the weather conditions in past years. The results will help you decide how hot, cold, wet, or windy it might be!

Date:

Astronomy

Feb. 23, 2014 Rise Set
Actual Time 7:02 AM AST 5:54 PM AST
Civil Twilight 6:32 AM AST 6:23 PM AST
Nautical Twilight 5:59 AM AST 6:57 PM AST
Astronomical Twilight 5:25 AM AST 7:31 PM AST
Moon 2:03 AM AST (2/23) 11:45 AM AST (2/23)
Length of Visible Light 11h 50m
Length of Day
10h 51m
Last Quarter, 39% of the Moon is Illuminated
Feb 23
Last Quarter
Mar 1
New
Mar 8
First Quarter
Mar 16
Full
Mar 23
Last Quarter

Hourly Weather History & Observations

Time (AST) Temp. Windchill Dew Point Humidity Pressure Visibility Wind Dir Wind Speed Gust Speed Precip Events Conditions
12:00 AM 35.4 °F 30.5 °F 26.1 °F 69% 29.81 in 9.0 mi South 5.8 mph - N/A   Unknown
1:00 AM 36.1 °F 31.4 °F 27.7 °F 71% 29.81 in 9.0 mi South 5.8 mph - N/A   Unknown
2:00 AM 36.3 °F 31.6 °F 28.6 °F 74% 29.82 in 9.0 mi SSE 5.8 mph - N/A   Unknown
3:00 AM 35.8 °F 33.0 °F 28.9 °F 76% 29.84 in 9.0 mi South 3.5 mph - N/A   Unknown
4:00 AM 35.1 °F 30.1 °F 28.8 °F 78% 29.87 in 9.0 mi South 5.8 mph - N/A   Unknown
5:00 AM 33.6 °F 29.4 °F 28.2 °F 81% 29.88 in 9.0 mi SSE 4.6 mph - N/A   Unknown
6:00 AM 31.5 °F 28.1 °F 27.5 °F 85% 29.90 in 9.0 mi SSE 3.5 mph - N/A   Unknown
7:00 AM 28.6 °F - 25.9 °F 90% 29.92 in 9.0 mi SSE 1.2 mph - N/A   Unknown
8:00 AM 31.3 °F - 27.0 °F 84% 29.96 in 9.0 mi NNW 2.3 mph - N/A   Unknown
9:00 AM 40.5 °F 36.5 °F 23.0 °F 50% 29.97 in 8.0 mi WSW 5.8 mph - N/A   Unknown
10:00 AM 41.9 °F 35.9 °F 15.6 °F 35% 29.96 in 9.0 mi West 10.4 mph 17.3 mph N/A   Unknown
11:00 AM 43.7 °F 40.3 °F 12.2 °F 28% 29.96 in 9.0 mi WSW 5.8 mph - N/A   Unknown
12:00 PM 45.1 °F 41.4 °F 12.6 °F 27% 29.94 in 9.0 mi West 6.9 mph - N/A   Unknown
1:00 PM 46.0 °F 41.0 °F 15.6 °F 30% 29.91 in 9.0 mi South 10.4 mph - N/A   Unknown
2:00 PM 46.9 °F - 21.4 °F 36% 29.90 in 9.0 mi SSW 8.1 mph - N/A   Unknown
3:00 PM 44.4 °F 40.5 °F 26.6 °F 50% 29.90 in 9.0 mi SSE 6.9 mph - N/A   Unknown
4:00 PM 44.6 °F 42.2 °F 25.2 °F 46% 29.90 in 9.0 mi WNW 4.6 mph - N/A   Unknown
5:00 PM 43.2 °F - 27.1 °F 53% 29.90 in 9.0 mi Calm Calm - N/A   Unknown
6:00 PM 37.4 °F - 29.5 °F 73% 29.90 in 10.0 mi Calm Calm - N/A   Unknown
7:00 PM 35.8 °F - 29.7 °F 78% 29.91 in 9.0 mi Calm Calm - N/A   Unknown
8:00 PM 39.2 °F 37.0 °F 29.8 °F 69% 29.90 in 10.0 mi SSE 3.5 mph - N/A   Unknown
9:00 PM 41.7 °F 38.8 °F 30.0 °F 63% 29.88 in 9.0 mi SW 4.6 mph - N/A   Unknown
10:00 PM 41.7 °F 36.7 °F 30.7 °F 65% 29.87 in 9.0 mi West 8.1 mph - N/A   Unknown
11:00 PM 38.5 °F 36.1 °F 32.9 °F 80% 29.84 in 10.0 mi South 3.5 mph - N/A   Unknown